Погода Нижний Тагил

Погода Нижний Тагил : погода сейчас, прогноз погоды и архив. Всё, что Вы хотите узнать о погоде Нижний Тагил!

Хотите узнать прогноз погоды Нижний Тагил? Тогда Вам сюда: Погода Нижний Тагил

Поиск расширенной информации на нашем сайте:

Другие новости

Новости СМИ2

Главная страница сайта

Новости сайта

03.07.2017

Напоминаем, что на нашем специализированном сайте Метеоцентр.Азия вы можете получить высокодетализированные автоматические прогнозы погоды по пунктам России, СНГ и мира в авиационном формате (включающие направление и скорость ветра, видимость, явления погоды, количество и форму облачности, нижнюю и верхнюю границу облачности).


Погода Нижний Тагил - сегодня

Время (UTC), дата Ветер
(°,м/с) 
Видим.   Явления Облачность Т
(°С)
Тd
(°С)
f(%) Тe
(°С)
Pmin
(гПа)
dP
(гПа)
Po
(мм)
O2
(г/м3)
Тmin Tmax R s Состояние
почвы
18 13.08.18 170 (Ю) 20000 м    ясно 
+16.6 +13.5 82 +24  1007.5  0.2  733  276           
21 13.08.18 180 (Ю) 20000 м    ясно 
+14.4 +12.5 88 +21  1007.4  -0.3  733  278           
00 14.08.18 140 (ЮВ) 20000 м    4/4 600 м 
[Sc]
+14.2 +12 87 +19  1007.2  -0.3  733  278           
03 14.08.18 200 (Ю) 20000 м    9/6 600 м средняя 
[Sc|As op]
+17.8 +14 78 +27  1007.4  0.6  733  274  +12.7        сухая 
06 14.08.18 190 (Ю) 20000 м  {дождь}  9/9 600 м кучево-дожд. 
[Cb cap]
+22.5 +15.6 65 +33  1006.4  -0.5  733  269           
09 14.08.18 300 (СЗ) 4000 м  гроза, ливневой дождь  10/10 600 м кучево-дожд. 
[Cb calv]
+21.6 +15.4 68 +32  1006.9  0.3  733  270           
12 14.08.18 150 (ЮВ) 20000 м  {гроза, ливн. осадки}  10/10 600 м кучево-дожд. 
[Cb cap]
+17.9 +16.9 94 +32  1007.7  0.4  733  273           
18 14.08.18 170 (Ю) 20000 м  {ливн. осадки}  10/6 600 м средняя 
[Sc|As op]
+15.1 +14.8 98 +25  1007.9  0.1  733  277           
21 14.08.18 270 (З) 20000 м    10/0 средняя 
[As op]
+14.4 +14.1 98 +24  1008  733  278           
00 15.08.18 280 (З) 20000 м    10/0 средняя 
[As op]
+13.5 +13.2 98 +21  1008.2  0.1  733  279           
03 15.08.18 270 (З) 20000 м    10/0 средняя 
[As op]
+14.8 +13.3 91 +22  1008.7  0.6  734  278  +13.3    0.3    влажная 
06 15.08.18 340 (С) 20000 м    9/5 600 м кучево-дожд., средняя 
[Cb cap|As op]
+17.7 +12.6 72 +23  1008.6  0.3  734  275           
09 15.08.18 350 (С) 20000 м    9/8 600 м кучево-дожд., верхняя 
[Cb cap|Ci fib]
+20.4 +11.3 56 +24  1008.9  0.5  734  273           
12 15.08.18 310 (СЗ) 20000 м    9/9 600 м кучево-дожд. 
[Cb cap]
+22 +10.2 47 +24  1009.3  0.6  735  272           
18 15.08.18 300 (СЗ) 20000 м    5/5 600 м 
[Sc]
+14.4 +10 75 +17  1013.1  1.1  737  280           
21 15.08.18 110 (В) 20000 м    ясно 
+8.4 +8 97 +9  1014.1  0.3  737  287           
00 16.08.18 120 (ЮВ) 4000 м  дымка  5/5 600 м 
[Sc]
+6.8 +6.6 99 +8  1014.8  0.5  737  289           
03 16.08.18 220 (ЮЗ) 20000 м    4/0 верхняя 
[Cc]
+13.8 +11.7 87 +19  1014.4  0.4  738  281  +6.6        влажная 
06 16.08.18 280 (З) 20000 м    6/0 средняя, верхняя 
[Ac lent|Cc]
+18.9 +11.2 61 +23  1013.1  -0.7  737  276           
09 16.08.18 230 (ЮЗ) 20000 м    10/10 600 м кучево-дожд. 
[Cb cap]
+18.9 +11.4 62 +23  1012.3  -0.8  737  275           
12 16.08.18 150 (ЮВ) 20000 м  в посл. час ливневой дождь  10/10 600 м кучево-дожд. 
[Cb cap]
+15.2 +12.6 84 +21  1010.8  -1.8  735  278           
18 16.08.18 240 (ЮЗ) 20000 м    5/3 600 м кучево-дожд., средняя 
[Cb cap|Ac lent]
+16.1 +13.8 86 +24  1007.5  -1.1  733  276           
21 16.08.18 220 (ЮЗ) 4000 м  слаб. ливневой дождь  10/10 600 м кучево-дожд. 
[Cb cap]
+16 +15.1 94 +27  1006.1  -1.4  732  275           
00 17.08.18 250 (З) 20000 м  {ливн. осадки}  10/0 кучево-дожд. 
[Cb cap]
+15.6 +15.2 97 +26  1005.4  -0.7  731  275           
03 17.08.18 320 (СЗ) 20000 м  слаб. морось  10/10 300 м 
[St]
+12.1 +11.5 96 +16  1008.6  2.7  733  281  +12.1    10    влажная 
Время (UTC), дата Ветер
(°,м/с) 
Видим.   Явления Облачность Т
(°С)
Тd
(°С)
f(%) Тe
(°С)
Pmin
(гПа)
dP
(гПа)
Po
(мм)
O2
(г/м3)
Тmin Tmax R s Состояние
почвы

Для получения пояснительной информации подведите курсор к названию столбца.

ПОГОДА Нижний Тагил - архив

Всё, что Вы хотите узнать о погоде Нижний Тагил - удобно и подробно!

Выберите нужную дату (начиная с 1 января 2015* года) и нажмите кнопку "Найти".
Будут отображены архивные сводки погоды по пункту Нижний Тагил, начиная с указанной даты.


Отображать данные в формате CSV (для использования в таблицах Excel)


Внимание! Наш архив погоды предназначен исключительно для личного некоммерческого использования в познавательных целях. Если Вам необходимы официальные справки о состоянии погоды (для производственных, юридических, коммерческих и т.п. целей), обращайтесь в органы Росгидромета.

*Примечание: данная дата относится к архиву по метеостанциям СССР (Россия, СНГ, Балтия).
Архив по метеостанциям Зарубежной Европы и Азии (кроме Китая) хранится 10 дней, по другим регионам земного шара (Китай, Африка, Америка, Австралия, Океания) - 1 день.

Нижний Тагил - район местоположения метеостанции


Название, широта, долгота, высота метеостанции:
Нижний Тагил 57.9°ш. 60.1°д. 260 м над ур. моря [Российская Федерация]

Дополнительная информация

В oтличие oт бoльшинства пoгoдных сайтoв мы публикуем пoдрoбную метеoинфoрмацию в детальнoм прoфессиoнальнoм фoрмате.

Характеристики температуры и влажнoсти вoздуха измеряются на высoте 2 м в тени вдали oт зданий и деревьев.
Скoрoсть ветра измеряется на высoте 10 м (на урoвне рoста челoвека скoрoсть ветра ниже в 1.5-2 раза). Если метеoстанция нахoдится в гoрoде или в лесу, тo скoрoсть ветра занижена на 2-4 м/с пo сравнению с oткрытым местoм. Скoрoсть ветра над акватoриями крупных рек и oзёр, а также на вершинах хoлмoв на 2-5 м/с выше, чем в oбычных услoвиях.
Атмoсфернoе давление в разных тoчках местнoсти мoжет значительнo oтличаться oт давления на метеoстанции, в зависимoсти oт услoвий рельефа (при пoдъёме на 10 м давление пoнижается примернo на 1 мм рт.ст.).